Latest Coastal Weather Observations for Gabo Island

IDT60701

Issued at 8:05 pm EST Wednesday 23 July 2014 (issued every 10 minutes, with the page automatically refreshed every 10 minutes)

About coastal observations | Map of coastal stations | Coastal observations for TAS | Marine services | Other Formats
Station Details ID: 084016 Name: GABO ISLAND LIGHTHOUSE Lat: -37.57 Lon: 149.92 Height: 15.2 m
Data from the previous 72 hours. | See also: Recent months at Gabo Island
Date/Time
EST
Temp

°C
Wind Pressure Rain
since 9am
mm
Weather Cloud Vis
km
Sea
Height
m
Swell
Dir
 
Speed
knots
Gust
knots
hPa Trend Height
m
Period
s
Dir
23/08:00pm 11.4 N 8 10 1022.1 - 0.0 - - - - - - -
23/07:30pm 11.6 N 8 9 1022.0 - 0.0 - - - - - - -
23/07:00pm 12.3 NNE 9 11 1021.9 - 0.0 - - - - - - -
23/06:30pm 11.8 N 8 9 1021.8 - 0.0 - - - - - - -
23/06:00pm 12.7 NNE 8 9 1021.6 - 0.0 - - - - - - -
23/05:30pm 12.9 NNE 7 9 1021.6 - 0.0 - - - - - - -
23/05:00pm 13.1 NE 7 9 1021.4 - 0.0 - - - - - - -
23/04:30pm 13.6 ENE 6 7 1021.4 - 0.0 - - - - - - -
23/04:00pm 14.1 ENE 5 6 1021.4 - 0.0 - - - - - - -
23/03:30pm 14.4 ESE 4 6 1021.4 - 0.0 - - - - - - -
23/03:00pm 14.5 SSE 4 5 1021.5 - 0.0 Fine Mostly clear 30 <0.5 1.0 - S
23/02:30pm 14.4 S 4 5 1021.6 - 0.0 - - - - - - -
23/02:00pm 14.6 SSW 5 6 1021.7 - 0.0 - - - - - - -
23/01:30pm 14.3 SW 5 6 1022.0 - 0.0 - - - - - - -
23/01:00pm 13.9 WSW 6 8 1022.4 - 0.0 - - - - - - -
23/12:30pm 13.7 WSW 7 8 1022.8 - 0.0 - - - - - - -
23/12:00pm 13.6 WSW 7 8 1023.4 - 0.0 - - - - - - -
23/11:30am 13.5 WSW 8 10 1023.8 - 0.0 - - - - - - -
23/11:00am 13.5 W 7 10 1024.4 - 0.0 - - - - - - -
23/10:30am 13.0 WNW 8 10 1024.8 - 0.0 - - - - - - -
23/10:00am 12.6 WNW 9 11 1024.9 - 0.0 - - - - - - -
23/09:30am 11.7 WNW 10 12 1025.0 - 0.0 - - - - - - -
23/09:00am 11.2 WNW 10 13 1024.7 - 0.0 Fine Mostly clear 30 <0.5 1.0 - S
23/08:30am 10.7 NW 10 12 1024.5 - 0.0 - - - - - - -
23/08:00am 10.2 NW 9 12 1024.5 - 0.0 - - - - - - -
23/07:30am 9.6 NW 10 13 1024.5 - 0.0 - - - - - - -
23/07:00am 9.4 WNW 9 12 1024.2 - 0.0 - - - - - - -
23/06:30am 9.4 WNW 9 13 1024.1 - 0.0 - - - - - - -
23/06:00am 9.2 WNW 9 12 1023.7 - 0.0 - - - - - - -
23/05:30am 8.8 WNW 9 11 1023.5 - 0.0 - - - - - - -
23/05:00am 8.9 WNW 9 11 1023.6 - 0.0 - - - - - - -
23/04:30am 8.9 WNW 8 10 1023.4 - 0.0 - - - - - - -
23/04:00am 8.9 W 8 11 1023.4 - 0.0 - - - - - - -
23/03:30am 9.4 WNW 8 11 1023.3 - 0.0 - - - - - - -
23/03:00am 9.3 WNW 8 10 1023.6 - 0.0 Fine Mostly clear 30 <0.5 2.0 - SE
23/02:30am 9.5 WNW 9 11 1023.8 - 0.0 - - - - - - -
23/02:00am 9.6 WNW 9 11 1023.8 - 0.0 - - - - - - -
23/01:30am 9.9 WNW 9 11 1024.1 - 0.0 - - - - - - -
23/01:00am 10.0 NW 9 12 1024.1 - 0.0 - - - - - - -
23/12:30am 10.2 NW 9 11 1024.2 - 0.0 - - - - - - -
23/12:00am 10.4 WNW 9 11 1024.3 - 0.0 - - - - - - -
 
Date/Time
EST
Temp

°C
Wind Pressure Rain
since 9am
mm
Weather Cloud Vis
km
Sea
Height
m
Swell
Dir
 
Speed
knots
Gust
knots
hPa Trend Height
m
Period
s
Dir
22/11:30pm 10.3 WNW 10 11 1024.5 - 0.0 - - - - - - -
22/11:00pm 10.4 WNW 7 9 1024.7 - 0.0 - - - - - - -
22/10:30pm 10.4 WNW 8 11 1024.6 - 0.0 - - - - - - -
22/10:00pm 10.2 WNW 8 11 1024.7 - 0.0 - - - - - - -
22/09:30pm 10.3 WNW 8 11 1024.7 - 0.0 - - - - - - -
22/09:00pm 10.4 WNW 8 9 1024.7 - 0.0 Fine Mostly clear 30 1 2.0 - SE
22/08:30pm 10.2 WNW 6 8 1024.6 - 0.0 - - - - - - -
22/08:00pm 10.6 W 8 10 1024.8 - 0.0 - - - - - - -
22/07:30pm 10.6 NW 8 11 1024.7 - 0.0 - - - - - - -
22/07:00pm 11.6 W 11 14 1024.6 - 0.0 - - - - - - -
22/06:30pm 12.1 W 12 15 1024.5 - 0.0 - - - - - - -
22/06:00pm 12.2 W 13 15 1024.4 - 0.0 - - - - - - -
22/05:30pm 12.5 SW 15 17 1024.1 - 0.0 - - - - - - -
22/05:00pm 13.0 SW 17 19 1024.0 - 0.0 - - - - - - -
22/04:30pm 13.1 SW 18 21 1023.7 - 0.0 - - - - - - -
22/04:00pm 13.4 SW 18 20 1023.7 - 0.0 - - - - - - -
22/03:30pm 13.7 SW 16 18 1023.6 - 0.0 - - - - - - -
22/03:00pm 13.8 SW 15 17 1023.5 - 0.0 Fine Mostly clear 40 1 2.0 - SE
22/02:30pm 13.8 SW 16 18 1023.4 - 0.0 - - - - - - -
22/02:00pm 13.6 SW 12 14 1023.3 - 0.0 - - - - - - -
22/01:30pm 13.5 SSW 12 14 1023.5 - 0.0 - - - - - - -
22/01:00pm 14.0 SW 7 10 1023.8 - 0.0 - - - - - - -
22/12:30pm 14.0 WSW 8 9 1024.0 - 0.0 - - - - - - -
22/12:00pm 13.4 W 9 11 1024.6 - 0.0 - - - - - - -
22/11:30am 13.2 W 9 11 1025.0 - 0.0 - - - - - - -
22/11:00am 12.5 W 10 13 1025.5 - 0.0 - - - - - - -
22/10:30am 11.9 W 10 12 1025.8 - 0.0 - - - - - - -
22/10:00am 11.5 W 9 11 1025.9 - 0.0 - - - - - - -
22/09:30am 11.0 W 9 12 1025.9 - 0.0 - - - - - - -
22/09:00am 10.1 WNW 11 13 1025.7 - 0.0 Fine Mostly clear 40 <0.5 2.0 - SE
22/08:30am 9.7 WNW 10 11 1025.4 - 0.0 - - - - - - -
22/08:00am 9.0 WNW 9 12 1025.1 - 0.0 - - - - - - -
22/07:30am 8.7 WNW 9 11 1024.9 - 0.0 - - - - - - -
22/07:00am 8.7 WNW 10 12 1024.6 - 0.0 - - - - - - -
22/06:30am 8.4 WNW 9 13 1024.3 - 0.0 - - - - - - -
22/06:00am 8.4 WNW 9 13 1024.1 - 0.0 - - - - - - -
22/05:30am 8.2 WNW 10 12 1023.9 - 0.0 - - - - - - -
22/05:00am 8.2 WNW 10 13 1023.9 - 0.0 - - - - - - -
22/04:30am 8.3 W 9 11 1023.9 - 0.0 - - - - - - -
22/04:00am 8.6 W 10 11 1023.8 - 0.0 - - - - - - -
22/03:30am 8.8 WNW 8 10 1024.0 - 0.0 - - - - - - -
22/03:00am 9.2 WNW 8 9 1024.0 - 0.0 Fine Mostly clear 30 <0.5 1.0 - SE
22/02:30am 9.4 WNW 8 11 1024.1 - 0.0 - - - - - - -
22/02:00am 9.4 WNW 9 11 1024.0 - 0.0 - - - - - - -
22/01:30am 9.5 WNW 8 11 1024.2 - 0.0 - - - - - - -
22/01:00am 9.7 WNW 8 11 1024.1 - 0.0 - - - - - - -
22/12:30am 9.7 WNW 8 10 1024.2 - 0.0 - - - - - - -
22/12:00am 9.8 WNW 9 11 1024.4 - 0.0 - - - - - - -
 
Date/Time
EST
Temp

°C
Wind Pressure Rain
since 9am
mm
Weather Cloud Vis
km
Sea
Height
m
Swell
Dir
 
Speed
knots
Gust
knots
hPa Trend Height
m
Period
s
Dir
21/11:30pm 9.9 WNW 9 11 1024.7 - 0.0 - - - - - - -
21/11:00pm 10.2 WNW 8 9 1024.7 - 0.0 - - - - - - -
21/10:30pm 10.3 NW 8 10 1024.8 - 0.0 - - - - - - -
21/10:00pm 10.5 NW 8 10 1024.9 - 0.0 - - - - - - -
21/09:30pm 10.6 WNW 7 9 1025.0 - 0.0 - - - - - - -
21/09:00pm 10.8 WNW 7 9 1025.1 - 0.0 Fine Partly cloudy 30 <0.5 1.0 - SE
21/08:30pm 10.8 WNW 8 9 1025.1 - 0.0 - - - - - - -
21/08:00pm 10.5 WNW 8 9 1025.1 - 0.0 - - - - - - -
21/07:30pm 10.6 WNW 7 8 1025.1 - 0.0 - - - - - - -
21/07:00pm 11.0 WNW 7 8 1025.1 - 0.0 - - - - - - -
21/06:30pm 11.5 WNW 6 8 1024.9 - 0.0 - - - - - - -
21/06:00pm 11.9 S 1 3 1024.6 - 0.0 - - - - - - -
21/05:30pm 12.1 SSE 1 3 1024.4 - 0.0 - - - - - - -
21/05:00pm 12.7 S 4 6 1024.3 - 0.0 - - - - - - -
21/04:30pm 13.0 S 5 6 1024.1 - 0.0 - - - - - - -
21/04:00pm 13.2 S 6 8 1024.1 - 0.0 - - - - - - -
21/03:30pm 13.6 S 7 8 1024.0 - 0.0 - - - - - - -
21/03:00pm 14.5 SSW 6 8 1024.0 - 0.0 Fine Mostly cloudy 40 <0.5 1.0 - SE
21/02:30pm 13.6 SSW 6 8 1024.0 - 0.0 - - - - - - -
21/02:00pm 13.5 SW 6 8 1024.0 - 0.0 - - - - - - -
21/01:30pm 13.4 WSW 6 7 1024.1 - 0.0 - - - - - - -
21/01:00pm 13.6 W 7 8 1024.4 - 0.0 - - - - - - -
21/12:30pm 13.7 W 8 9 1024.7 - 0.0 - - - - - - -
21/12:00pm 13.4 W 7 9 1025.2 - 0.0 - - - - - - -
21/11:30am 13.6 W 7 9 1025.5 - 0.0 - - - - - - -
21/11:00am 12.8 W 7 8 1026.0 - 0.0 - - - - - - -
21/10:30am 13.2 W 8 9 1026.4 - 0.0 - - - - - - -
21/10:00am 13.0 WNW 7 9 1026.5 - 0.0 - - - - - - -
21/09:30am 11.6 NW 8 11 1026.7 - 0.0 - - - - - - -
21/09:00am 10.9 WNW 9 12 1026.8 - 0.0 Fine Mostly cloudy 30 1 1.0 - SE
21/08:30am 10.6 NW 9 13 1026.5 - 0.0 - - - - - - -
21/08:00am 9.9 WNW 9 11 1026.5 - 0.0 - - - - - - -
21/07:30am 9.3 NW 9 11 1026.4 - 0.0 - - - - - - -
21/07:00am 9.1 WNW 8 11 1026.3 - 0.0 - - - - - - -
21/06:30am 8.8 WNW 9 11 1026.1 - 0.0 - - - - - - -
21/06:00am 8.8 WNW 8 11 1026.1 - 0.0 - - - - - - -
21/05:30am 8.7 NW 8 9 1026.1 - 0.0 - - - - - - -
21/05:00am 9.2 WNW 7 9 1025.9 - 0.0 - - - - - - -
21/04:30am 10.2 WNW 7 9 1025.9 - 0.0 - - - - - - -
21/04:00am 10.5 WNW 7 11 1025.9 - 0.0 - - - - - - -
21/03:30am 10.4 NW 8 9 1025.9 - 0.0 - - - - - - -
21/03:00am 10.4 WNW 8 11 1025.9 - 0.0 Fine Mostly cloudy 30 1 1.0 - SE
21/02:30am 10.6 WNW 8 10 1026.2 - 0.0 - - - - - - -
21/02:00am 10.4 WNW 8 10 1026.3 - 0.0 - - - - - - -
21/01:30am 10.1 WNW 8 9 1026.3 - 0.0 - - - - - - -
21/01:00am 10.0 WNW 8 9 1026.3 - 0.0 - - - - - - -
21/12:30am 10.1 W 9 11 1026.4 - 0.0 - - - - - - -
21/12:00am 10.2 WNW 9 12 1026.6 - 0.0 - - - - - - -
 
Date/Time
EST
Temp

°C
Wind Pressure Rain
since 9am
mm
Weather Cloud Vis
km
Sea
Height
m
Swell
Dir
 
Speed
knots
Gust
knots
hPa Trend Height
m
Period
s
Dir
20/11:30pm 10.3 WNW 10 12 1026.6 - 0.0 - - - - - - -
20/11:00pm 10.6 WNW 9 12 1026.6 - 0.0 - - - - - - -
20/10:30pm 10.7 WNW 9 13 1026.7 - 0.0 - - - - - - -
20/10:00pm 10.7 WNW 8 11 1026.8 - 0.0 - - - - - - -
20/09:30pm 10.6 WNW 9 12 1026.9 - 0.0 - - - - - - -
20/09:00pm 10.3 WNW 9 11 1026.9 - 0.0 Fine Mostly clear 30 1 1.0 - SE
20/08:30pm 10.4 WNW 9 11 1026.9 - 0.0 - - - - - - -

Other Formats:

Comma delimited format used in spreadsheet applications
http://www.bom.gov.au/fwo/IDT60701/IDT60701.94933.axf

JavaScript Object Notation format (JSON) in row-major order
http://www.bom.gov.au/fwo/IDT60701/IDT60701.94933.json